Location: Nairn
(57.5833°N, 3.8667°W)
Time: 02:55:31
(UTC+00:00)

Transit 2A - Pass Details

Date: 28 November 2020
Orbit: 598 x 960 km, 66.7° (Epoch: 20 January)

Event Time Altitude Azimuth Distance (km) Brightness Sun altitude
Rises 21:08:54 0° 270° (W) 3,574 10.1 -42.1°
Reaches altitude 10° 21:11:44 10° 279° (W) 2,591 9.3 -42.4°
Enters shadow 21:13:51 20° 291° (WNW) 1,925 8.5 -42.6°
